FW8600 Weather Reports


time (UTC)temp
C
wind
direction
speed
KPH
gust
KPH
rain 1hr
cm
rain 24hr
cm
rain mn
cm
humidity
%
barometer
mb
20260906031536 22 0 1.6 4.8 0.00 0.00 0.00 95 1015.4
20260906030036 22 79 0.0 1.6 0.00 0.00 0.00 96 1015.3
20260906024541 22 0 0.0 1.6 0.00 0.00 0.00 97 1015.3
20260906023036 22 0 0.0 1.6 0.00 0.00 0.00 96 1015.0
20260906021537 22 96 1.6 8.0 0.00 0.00 0.00 95 1014.6
20260906020045 22 110 4.8 6.4 0.00 0.00 0.00 98 1014.6
20260906014550 22 0 0.0 0.0 0.00 0.00 0.00 97 1014.9
20260906013035 22 86 0.0 1.6 0.00 0.00 0.00 96 1014.6
20260906011541 22 0 0.0 1.6 0.00 0.00 0.00 95 1014.6
20260906010037 23 0 0.0 3.2 0.00 0.00 0.00 93 1014.4
20260906004541 23 0 0.0 1.6 0.00 0.00 0.00 93 1014.2
20260906003048 24 0 0.0 3.2 0.00 0.00 0.00 92 1013.9
20260906001537 24 0 0.0 0.0 0.00 0.00 0.00 91 1013.8
20260906000039 25 0 0.0 0.0 0.00 0.00 0.00 88 1013.6
20260905234536 26 0 0.0 0.0 0.00 0.00 0.00 85 1013.6
20260905233036 26 0 0.0 1.6 0.00 0.00 0.00 83 1013.6
20260905231539 27 0 0.0 1.6 0.00 0.00 0.00 80 1013.5
20260905230035 28 0 0.0 0.0 0.00 0.00 0.00 74 1013.3
20260905224535 29 0 0.0 1.6 0.00 0.00 0.00 72 1013.2
20260905223036 29 97 0.0 3.2 0.00 0.00 0.00 69 1013.1
20260905221538 30 0 0.0 6.4 0.00 0.00 0.00 66 1013.3
20260905220044 29 69 1.6 8.0 0.00 0.00 0.00 67 1013.3
20260905214534 29 71 1.6 8.0 0.00 0.00 0.00 68 1013.4
20260905213042 28 82 3.2 9.7 0.00 0.00 0.00 70 1013.5
20260905211542 28 79 3.2 14.5 0.00 0.00 0.00 70 1013.8
20260905210036 27 91 3.2 11.3 0.00 0.00 0.00 73 1013.9
20260905204538 26 88 3.2 6.4 0.00 0.00 0.00 77 1014.1
20260905203038 25 68 1.6 8.0 0.00 0.00 0.00 78 1014.2
20260905201543 25 77 1.6 11.3 0.00 0.00 0.00 80 1014.6
20260905200051 25 93 1.6 9.7 0.00 0.00 0.00 80 1014.8
20260905194545 25 79 0.0 6.4 0.00 0.00 0.00 79 1014.6
20260905193037 24 0 0.0 11.3 0.00 0.00 0.00 81 1014.7
20260905191537 24 71 0.0 1.6 0.00 0.00 0.00 84 1015.1
20260905190035 24 106 1.6 9.7 0.00 0.00 0.00 80 1014.8
20260905184543 24 101 3.2 19.3 0.00 0.00 0.00 82 1015.0
20260905183042 25 109 3.2 17.7 0.00 0.00 0.00 78 1014.9
20260905181538 27 94 1.6 8.0 0.00 0.00 0.00 71 1015.4
20260905180035 30 126 4.8 30.6 0.00 0.00 0.00 60 1015.0
20260905174538 33 74 1.6 9.7 0.00 0.00 0.00 58 1015.4
20260905173037 34 96 1.6 12.9 0.00 0.00 0.00 57 1015.5
20260905171537 34 112 3.2 9.7 0.00 0.00 0.00 57 1015.7
20260905170046 34 247 3.2 9.7 0.00 0.00 0.00 56 1015.4
20260905164539 33 75 1.6 9.7 0.00 0.00 0.00 59 1015.7
20260905163036 33 0 1.6 9.7 0.00 0.00 0.00 59 1015.9
20260905161536 33 103 3.2 8.0 0.00 0.00 0.00 59 1016.2
20260905160043 32 122 1.6 4.8 0.00 0.00 0.00 64 1016.3
20260905154535 31 285 1.6 6.4 0.00 0.00 0.00 70 1016.3
20260905153039 32 341 0.0 4.8 0.00 0.00 0.00 67 1016.2
20260905151541 31 47 1.6 6.4 0.00 0.00 0.00 66 1016.1
20260905150039 32 321 0.0 6.4 0.00 0.00 0.00 65 1016.0
20260905144546 31 68 0.0 3.2 0.00 0.00 0.00 66 1015.9
20260905143048 30 0 1.6 4.8 0.00 0.00 0.00 68 1016.0
20260905141538 29 88 1.6 4.8 0.00 0.00 0.00 73 1016.3
20260905140038 27 0 1.6 4.8 0.00 0.00 0.00 77 1016.2
20260905134535 27 80 1.6 9.7 0.00 0.00 0.00 81 1016.3
20260905133036 26 95 1.6 3.2 0.00 0.00 0.00 81 1016.4
20260905131547 26 100 1.6 8.0 0.00 0.00 0.00 84 1016.4
20260905130036 24 87 0.0 8.0 0.00 0.00 0.00 89 1016.7
20260905124541 23 68 1.6 6.4 0.00 0.00 0.00 91 1016.6
20260905123035 23 0 0.0 1.6 0.00 0.00 0.00 94 1016.4
20260905121535 22 0 0.0 0.0 0.00 0.00 0.00 99 1016.5
20260905120038 21 0 0.0 0.0 0.00 0.00 0.00 100 1016.5
20260905114544 20 82 0.0 1.6 0.00 0.00 0.00 100 1016.3
20260905113039 20 0 0.0 1.6 0.00 0.00 0.00 100 1016.0
20260905111542 20 0 0.0 1.6 0.00 0.00 0.00 100 1015.9
20260905110036 20 0 0.0 1.6 0.00 0.00 0.00 100 1015.5
20260905104535 20 0 0.0 0.0 0.00 0.00 0.00 100 1015.5
20260905103036 20 0 0.0 0.0 0.00 0.00 0.00 100 1015.2
20260905101543 20 0 0.0 1.6 0.00 0.00 0.00 100 1015.3
20260905100035 20 0 0.0 0.0 0.00 0.00 0.00 99 1015.2
20260905094536 20 0 0.0 1.6 0.00 0.00 0.00 99 1015.1
20260905093040 21 0 0.0 0.0 0.00 0.00 0.00 99 1015.3
20260905091535 21 0 0.0 0.0 0.00 0.00 0.00 99 1015.3
20260905090037 21 0 0.0 1.6 0.00 0.00 0.00 99 1015.3
20260905084541 21 0 0.0 1.6 0.00 0.00 0.00 99 1015.3
20260905083039 21 0 0.0 1.6 0.00 0.00 0.00 99 1015.6
20260905081538 21 0 0.0 1.6 0.00 0.00 0.00 99 1015.7
20260905080043 21 0 0.0 0.0 0.00 0.00 0.00 98 1016.0
20260905074537 21 0 0.0 1.6 0.00 0.00 0.00 98 1016.0
20260905073037 21 0 0.0 3.2 0.00 0.00 0.00 98 1016.0
20260905071538 21 63 0.0 1.6 0.00 0.00 0.00 98 1016.1
20260905070038 22 0 0.0 0.0 0.00 0.00 0.00 98 1016.2
20260905064544 22 0 0.0 0.0 0.00 0.00 0.00 98 1016.5
20260905063047 22 0 0.0 1.6 0.00 0.00 0.00 98 1016.6
20260905061540 22 0 0.0 0.0 0.00 0.00 0.00 98 1016.6
20260905060039 22 0 0.0 1.6 0.00 0.00 0.00 98 1016.9
20260905054537 22 0 0.0 1.6 0.00 0.00 0.00 98 1017.1
20260905053036 22 0 0.0 0.0 0.00 0.00 0.00 98 1017.2
20260905051538 22 0 0.0 0.0 0.00 0.00 0.00 97 1017.1
20260905050039 22 0 0.0 0.0 0.00 0.00 0.00 97 1017.1
20260905044539 22 0 0.0 0.0 0.00 0.00 0.00 97 1017.1
20260905043037 23 0 0.0 1.6 0.00 0.00 0.00 96 1017.1
20260905041536 23 0 0.0 1.6 0.00 0.00 0.00 95 1017.1
20260905040036 23 0 0.0 0.0 0.00 0.00 0.00 94 1017.0
20260905034536 23 0 0.0 1.6 0.00 0.00 0.00 94 1017.1
20260905033038 24 63 0.0 1.6 0.00 0.00 0.00 92 1017.0